K9SCH Weather Reports


Display with metric or nautical units.
time (UTC)temp
F
wind
direction
speed
MPH
gust
MPH
rain 1hr
in
rain 24hr
in
rain mn
in
humidity
%
barometer
mb
20260904081019 81 158 2.0 5.0 0.00 0.00 0.00 68 1012.2
20260904080018 81 135 2.0 5.0 0.00 0.00 0.00 68 1012.3
20260904075037 81 135 3.0 6.0 0.00 0.00 0.00 68 1012.3
20260904074019 81 135 4.0 7.0 0.00 0.00 0.00 68 1012.3
20260904073020 81 135 3.0 6.0 0.00 0.00 0.00 67 1012.3
20260904072041 81 135 5.0 8.0 0.00 0.00 0.00 67 1012.3
20260904071017 81 135 5.0 12.0 0.00 0.00 0.00 67 1012.3
20260904070019 81 135 6.0 10.0 0.00 0.00 0.00 66 1012.3
20260904065016 81 135 7.0 12.0 0.00 0.00 0.00 66 1012.2
20260904064037 81 135 7.0 11.0 0.00 0.00 0.00 66 1012.1
20260904063016 81 135 5.0 10.0 0.00 0.00 0.00 66 1012.1
20260904062020 82 135 5.0 9.0 0.00 0.00 0.00 65 1012.0
20260904061037 82 135 5.0 11.0 0.00 0.00 0.00 65 1011.9
20260904060038 82 135 6.0 11.0 0.00 0.00 0.00 64 1011.8
20260904055018 83 135 6.0 12.0 0.00 0.00 0.00 63 1011.8
20260904054018 83 135 5.0 10.0 0.00 0.00 0.00 63 1011.8
20260904053018 83 135 6.0 11.0 0.00 0.00 0.00 63 1011.7
20260904052016 83 135 6.0 12.0 0.00 0.00 0.00 63 1011.7
20260904051018 83 135 6.0 11.0 0.00 0.00 0.00 63 1011.7
20260904050017 83 135 5.0 12.0 0.00 0.00 0.00 61 1011.5
20260904045020 84 135 6.0 12.0 0.00 0.00 0.00 60 1011.6
20260904044036 84 135 7.0 11.0 0.00 0.00 0.00 59 1011.5
20260904043038 84 135 7.0 15.0 0.00 0.00 0.00 58 1011.4
20260904042018 85 135 7.0 13.0 0.00 0.00 0.00 56 1011.4
20260904041017 85 135 6.0 11.0 0.00 0.00 0.00 55 1011.3
20260904040019 85 135 6.0 10.0 0.00 0.00 0.00 54 1011.0
20260904035016 85 135 6.0 11.0 0.00 0.00 0.00 53 1011.0
20260904034016 84 135 6.0 12.0 0.00 0.00 0.00 53 1010.6
20260904033016 84 135 6.0 10.0 0.00 0.00 0.00 52 1010.5
20260904032016 85 135 7.0 11.0 0.00 0.00 0.00 52 1010.3
20260904031016 84 135 8.0 14.0 0.00 0.00 0.00 53 1010.2
20260904030018 84 135 7.0 12.0 0.00 0.00 0.00 57 1010.1
20260904025017 86 135 9.0 14.0 0.00 0.00 0.00 53 1010.0
20260904024017 86 135 6.0 12.0 0.00 0.00 0.00 50 1009.9
20260904023017 86 0.0 1.0 0.00 0.00 0.00 52 1009.7
20260904022016 86 0.0 1.0 0.00 0.00 0.00 52 1009.7
20260904021036 86 0.0 0.0 0.00 0.00 0.00 51 1009.6
20260904020039 85 270 3.0 5.0 0.00 0.00 0.00 52 1009.6
20260904015036 85 270 5.0 10.0 0.00 0.00 0.00 53 1009.8
20260904014016 85 270 9.0 15.0 0.00 0.00 0.00 53 1009.9
20260904013018 86 270 10.0 19.0 0.00 0.00 0.00 53 1010.2
20260904012037 92 248 4.0 24.0 0.00 0.00 0.00 41 1010.1
20260904011019 93 0.0 0.0 0.00 0.00 0.00 38 1009.6
20260904010016 93 0.0 3.0 0.00 0.00 0.00 37 1009.6
20260904005038 93 135 1.0 2.0 0.00 0.00 0.00 37 1009.7
20260904004018 94 0.0 1.0 0.00 0.00 0.00 36 1009.8
20260904003040 94 135 2.0 7.0 0.00 0.00 0.00 35 1009.7
20260904002016 95 0.0 3.0 0.00 0.00 0.00 35 1009.8
20260904001036 96 0.0 4.0 0.00 0.00 0.00 34 1009.8
20260904000036 96 113 1.0 4.0 0.00 0.00 0.00 34 1010.0
20260903235017 97 135 3.0 6.0 0.00 0.00 0.00 34 1010.1
20260903234016 97 135 3.0 8.0 0.00 0.00 0.00 33 1010.2
20260903233016 97 0.0 1.0 0.00 0.00 0.00 34 1010.1
20260903232018 97 158 3.0 10.0 0.00 0.00 0.00 33 1010.2
20260903231038 96 90 1.0 4.0 0.00 0.00 0.00 34 1010.2
20260903230017 97 0.0 0.0 0.00 0.00 0.00 32 1010.4
20260903225045 96 248 3.0 9.0 0.00 0.00 0.00 33 1010.4
20260903224016 97 203 4.0 8.0 0.00 0.00 0.00 33 1010.8
20260903223017 96 0.0 3.0 0.00 0.00 0.00 34 1010.7
20260903222017 96 203 4.0 12.0 0.00 0.00 0.00 34 1010.8
20260903221016 96 248 1.0 5.0 0.00 0.00 0.00 35 1010.9
20260903220038 96 248 5.0 9.0 0.00 0.00 0.00 33 1011.0
20260903215019 96 293 1.0 6.0 0.00 0.00 0.00 35 1011.1
20260903214016 96 203 4.0 8.0 0.00 0.00 0.00 34 1011.2
20260903213020 96 180 5.0 11.0 0.00 0.00 0.00 35 1011.3
20260903212020 95 45 1.0 7.0 0.00 0.00 0.00 36 1011.5
20260903211017 95 0.0 4.0 0.00 0.00 0.00 38 1011.7
20260903210017 95 248 5.0 9.0 0.00 0.00 0.00 36 1011.8
20260903205018 94 293 3.0 10.0 0.00 0.00 0.00 38 1012.0
20260903204017 94 135 4.0 8.0 0.00 0.00 0.00 39 1012.2
20260903203016 94 135 4.0 10.0 0.00 0.00 0.00 39 1012.3
20260903202016 93 248 2.0 5.0 0.00 0.00 0.00 39 1012.4
20260903201016 93 113 2.0 6.0 0.00 0.00 0.00 39 1012.7
20260903200016 93 135 1.0 5.0 0.00 0.00 0.00 40 1012.8
20260903195016 93 135 2.0 7.0 0.00 0.00 0.00 39 1013.0
20260903194037 93 158 1.0 6.0 0.00 0.00 0.00 39 1013.1
20260903193015 93 135 5.0 9.0 0.00 0.00 0.00 39 1013.3
20260903192019 94 135 4.0 7.0 0.00 0.00 0.00 40 1013.6
20260903191016 93 135 3.0 7.0 0.00 0.00 0.00 41 1013.7
20260903190019 93 158 3.0 9.0 0.00 0.00 0.00 43 1013.9
20260903185015 92 45 1.0 4.0 0.00 0.00 0.00 43 1013.9
20260903184015 91 135 4.0 8.0 0.00 0.00 0.00 42 1014.1
20260903183017 91 0.0 3.0 0.00 0.00 0.00 44 1014.3
20260903182037 92 158 4.0 8.0 0.00 0.00 0.00 44 1014.6
20260903181020 91 225 4.0 8.0 0.00 0.00 0.00 44 1014.6
20260903180015 90 293 1.0 3.0 0.00 0.00 0.00 45 1014.7
20260903175016 91 158 3.0 7.0 0.00 0.00 0.00 45 1014.9
20260903174016 89 270 2.0 6.0 0.00 0.00 0.00 48 1014.8
20260903173019 90 203 3.0 6.0 0.00 0.00 0.00 47 1014.9
20260903172017 89 0.0 4.0 0.00 0.00 0.00 48 1014.9
20260903171021 89 158 2.0 4.0 0.00 0.00 0.00 49 1014.9
20260903170016 88 135 2.0 6.0 0.00 0.00 0.00 49 1014.8
20260903165015 86 135 2.0 5.0 0.00 0.00 0.00 54 1014.8
20260903164017 86 113 3.0 5.0 0.00 0.00 0.00 58 1014.8
20260903163036 85 135 3.0 6.0 0.00 0.00 0.00 61 1014.8
20260903162016 84 135 3.0 5.0 0.00 0.00 0.00 62 1014.7
20260903161018 83 135 3.0 6.0 0.00 0.00 0.00 64 1014.7
20260903160016 82 135 3.0 5.0 0.00 0.00 0.00 66 1014.7
20260903155015 82 135 4.0 7.0 0.00 0.00 0.00 66 1014.8
20260903154015 81 135 3.0 6.0 0.00 0.00 0.00 68 1014.7
20260903153016 80 113 3.0 6.0 0.00 0.00 0.00 69 1014.7
20260903152017 79 135 4.0 7.0 0.00 0.00 0.00 69 1014.6
20260903151018 79 113 4.0 8.0 0.00 0.00 0.00 71 1014.7
20260903150016 78 135 4.0 9.0 0.00 0.00 0.00 73 1014.5
20260903145015 78 135 4.0 8.0 0.00 0.00 0.00 74 1014.6
20260903144016 77 135 4.0 7.0 0.00 0.00 0.00 74 1014.5
20260903143017 77 135 4.0 7.0 0.00 0.00 0.00 74 1014.6
20260903142017 77 135 4.0 7.0 0.00 0.00 0.00 72 1014.6
20260903141015 77 113 3.0 4.0 0.00 0.00 0.00 72 1014.5
20260903140017 77 90 4.0 8.0 0.00 0.00 0.00 73 1014.2
20260903135035 77 113 5.0 7.0 0.00 0.00 0.00 73 1014.2
20260903134020 77 113 5.0 8.0 0.00 0.00 0.00 76 1014.3
20260903133017 77 113 5.0 12.0 0.00 0.00 0.00 76 1014.4
20260903132017 77 135 5.0 10.0 0.00 0.00 0.00 75 1014.2
20260903131017 77 135 5.0 9.0 0.00 0.00 0.00 74 1014.0
20260903130017 78 135 6.0 11.0 0.00 0.00 0.00 72 1014.1
20260903125018 79 158 6.0 10.0 0.00 0.00 0.00 71 1014.2
20260903124017 80 158 7.0 14.0 0.00 0.00 0.00 67 1014.1
20260903123017 81 135 3.0 8.0 0.00 0.00 0.00 69 1014.1
20260903122036 81 135 3.0 6.0 0.00 0.00 0.00 70 1014.0
20260903121018 81 135 2.0 4.0 0.00 0.00 0.00 71 1013.8
20260903120015 80 0.0 1.0 0.00 0.00 0.00 72 1013.7
20260903115035 81 0.0 1.0 0.00 0.00 0.00 71 1013.6
20260903114017 81 0.0 1.0 0.00 0.00 0.00 71 1013.5
20260903113015 81 135 1.0 2.0 0.00 0.00 0.00 70 1013.5
20260903112038 81 135 1.0 3.0 0.00 0.00 0.00 69 1013.5
20260903111035 81 0.0 2.0 0.00 0.00 0.00 69 1013.5
20260903110018 81 0.0 1.0 0.00 0.00 0.00 68 1013.5
20260903105016 81 158 1.0 4.0 0.00 0.00 0.00 68 1013.5
20260903104037 81 135 1.0 3.0 0.00 0.00 0.00 68 1013.4
20260903103018 81 135 2.0 4.0 0.00 0.00 0.00 68 1013.4
20260903102037 81 135 2.0 4.0 0.00 0.00 0.00 68 1013.4
20260903101017 81 158 2.0 4.0 0.00 0.00 0.00 68 1013.5
20260903100017 81 135 2.0 4.0 0.00 0.00 0.00 68 1013.4
20260903095019 81 135 2.0 4.0 0.00 0.00 0.00 69 1013.5
20260903094018 81 135 2.0 3.0 0.00 0.00 0.00 69 1013.6
20260903093018 81 135 2.0 4.0 0.00 0.00 0.00 68 1013.5
20260903092017 81 135 2.0 3.0 0.00 0.00 0.00 68 1013.5
20260903091017 82 135 2.0 5.0 0.00 0.00 0.00 68 1013.7
20260903090019 82 135 1.0 3.0 0.00 0.00 0.00 65 1013.5
20260903085017 82 0.0 2.0 0.00 0.00 0.00 63 1013.5
20260903084017 83 180 1.0 3.0 0.00 0.00 0.00 61 1013.5
20260903083017 83 0.0 0.0 0.00 0.00 0.00 62 1013.6
20260903082039 83 0.0 0.0 0.00 0.00 0.00 60 1013.7